CZ-6A DEB, 54561

Orbit data source: Space-Track

CZ-6A DEB, 54561 is space debris in SSO originally from a launch on Fri, 11 Nov 2022 UTC launched from the Taiyaun Space Center, China (TSC). Debris objects in space refer to the collection of defunct objects orbiting the Earth. Examples of debris include non-operational satellites, rocket bodies, and fragments generated from explosions, collisions, or faulty payload assembly.

Loading next visibility...
Identifier
54561, 2022-151LM
Orbit
SSO
Country
Flag of CNCN / PRC
Related business
Manufacturer
SAST
Mission
Spacecraft
Bus & Motor
Unknown
Mass
Unknown
Launch date (UTC)
2022-11-11 (3 years ago)
Launch vehicle
Unknown
Launch site
Taiyaun Space Center, China (TSC)
Object type
Payload
Rocket body
Debris
Shape & HBR
Unknown shape, 0.1 m
Radar Cross Section
Small (<0.1 m²)

Expand to show TLE details & history
Last TLE update: 1 day ago

TLE from 1 day ago
0 CZ-6A DEB
1 54561U 22151LM  25349.56792939  .00001574  00000-0  55749-3 0  9995
2 54561  98.8015  25.8542 0133351 292.3194  66.3898 14.31187916160925
Epoch: 2025-12-15T13:37Z
TLE epoch observation values (Epoch: 2025-12-15T13:37:49.099Z)
Latitude
Longitude
96.93499°
Altitude
753.489 km
Speed
7.497 km/s
True Right ascension
01h 43m 25s
True Declination
0° 00' 00"
Sunlit
Object was in full shadow at epoch
Visualization orbit readout
Latitude
Unknown
Longitude
Unknown
Altitude
Unknown
Speed
Unknown
Apparent Right ascension
Unknown
Apparent Declination
Unknown
Sunlit
N/A
Visualization observer readout
Local Sidereal Time
17:43:03
Azimuth
Unknown
Elevation
Unknown
Doppler factor
Unknown
Orbital elements
Apogee altitude
880.43 km
Perigee altitude
689.39 km
Semi-major axis
7,163.047 km
Eccentricity
0.01334
Inclination
98.8015°
RAAN
25.8542°
Arg. of periapsis
292.3194°
True anomaly
67.79924°
Mean anomaly
66.3898°
Eccentric anomaly
67.09359°
Mean motion
3.58011 °/min
Orbital period
100.56 mins
BSTAR
0.00055749
Loading maneuver chart data...
Computing Atmospheric mass density...
Loading historical data...
Loading historical data...
Loading historical data...
Loading historical data...
Loading historical data...
Loading historical data...
Loading historical data...

Documentation

Showing up to 5 results
|